Location: Pasarilla del Rebollar
(40.6790°N, 5.0062°W)
Time: 11:50:26
(UTC+00:00)

Aureole 1 Rocket - Pass Details

Date: 22 April 2026
Orbit: 373 x 1150 km, 73.9° (Epoch: 16 May)

Event Time Altitude Azimuth Distance (km) Brightness Sun altitude
Rises 03:37:07 0° 339° (NNW) 2,764 6.6 -20.0°
Reaches altitude 10° 03:39:06 10° 339° (NNW) 1,966 5.8 -19.7°
Maximum altitude 03:43:31 83° 253° (WSW) 723 3.2 -19.1°
Drops below altitude 10° 03:49:06 10° 165° (SSE) 2,465 5.9 -18.2°
Sets 03:51:50 0° 165° (SSE) 3,527 6.7 -17.8°
